Flippin, AR

2:26 AM CDT on April 27, 2017 (GMT -0500)
Marion County Regional

Weather History for KFLP - January, 2013

Change the Weather History Date:

Thursday, January 10, 2013

  Actual Average Record
Temperature  
Mean Temperature 48 °F -  
Max Temperature 51 °F 45 °F 71 °F (2017)
Min Temperature 44 °F 26 °F 6 °F (2015)
Degree Days  
Heating Degree Days 18    
Moisture  
Dew Point 43 °F    
Average Humidity 82    
Maximum Humidity 88    
Minimum Humidity 71    
Precipitation  
Precipitation 0.06 in - - ()
Sea Level Pressure  
Sea Level Pressure 30.00 in    
Wind  
Wind Speed 5 mph (East)    
Max Wind Speed 10 mph    
Max Gust Speed 16 mph    
Visibility 3 miles    
Events      
Averages and records for this station are not official NWS values.
T = Trace of Precipitation, MM = Missing Value Source: NWS Daily Summary

Daily Weather History Graph

Daily Weather History Graph

Search for Another Location

Airport or City:

Trip Planner

Search our weather history database for the weather conditions in past years. The results will help you decide how hot, cold, wet, or windy it might be!

Date:

Astronomy

Jan. 10, 2013 Rise Set
Actual Time 7:21 AM CST 5:14 PM CST
Civil Twilight 6:53 AM CST 5:42 PM CST
Nautical Twilight 6:21 AM CST 6:14 PM CST
Astronomical Twilight 5:50 AM CST 6:45 PM CST
Moon 6:02 AM CST (1/10) 4:22 PM CST (1/10)
Length of Visible Light 10h 49m
Length of Day
9h 52m
Waning Crescent, 2% of the Moon is Illuminated
Jan 10
Waning Crescent
Jan 11
New
Jan 18
First Quarter
Jan 26
Full
Feb 3
Last Quarter

Hourly Weather History & Observations

Time (CST) Temp. Windchill Dew Point Humidity Pressure Visibility Wind Dir Wind Speed Gust Speed Precip Events Conditions
12:15 AM 48.2 °F - 39.2 °F 71% 30.29 in 10.0 mi ENE 6.9 mph 16.1 mph N/A   Overcast
12:35 AM 48.2 °F - 39.2 °F 71% 30.28 in 10.0 mi East 8.1 mph - N/A   Overcast
12:55 AM 46.4 °F 43.5 °F 39.2 °F 76% 30.27 in 10.0 mi East 5.8 mph - N/A   Overcast
1:55 AM 46.4 °F 42.4 °F 37.4 °F 71% 30.26 in 10.0 mi East 8.1 mph - N/A   Overcast
2:35 AM 46.4 °F 42.4 °F 37.4 °F 71% 30.25 in 10.0 mi East 8.1 mph 16.1 mph N/A   Overcast
2:55 AM 44.6 °F 40.7 °F 37.4 °F 76% 30.24 in 10.0 mi East 6.9 mph - N/A   Overcast
3:15 AM 44.6 °F 39.7 °F 37.4 °F 76% 30.23 in 10.0 mi ENE 9.2 mph - N/A   Overcast
3:35 AM 44.6 °F 39.2 °F 37.4 °F 76% 30.21 in 10.0 mi East 10.4 mph - N/A   Overcast
3:55 AM 44.6 °F 40.2 °F 37.4 °F 76% 30.20 in 10.0 mi East 8.1 mph - N/A   Overcast
4:35 AM 44.6 °F 40.7 °F 37.4 °F 76% 30.18 in 2.5 mi East 6.9 mph - N/A   Overcast
4:55 AM 44.6 °F 43.1 °F 37.4 °F 76% 30.17 in 7.0 mi ENE 3.5 mph - N/A   Overcast
5:55 AM 44.6 °F 42.2 °F 39.2 °F 81% 30.15 in 2.5 mi ENE 4.6 mph - N/A   Overcast
6:35 AM 44.6 °F 42.2 °F 39.2 °F 81% 30.15 in 1.8 mi East 4.6 mph - N/A   Overcast
6:55 AM 44.6 °F 41.4 °F 39.2 °F 81% 30.15 in 1.8 mi East 5.8 mph - N/A   Overcast
7:55 AM 44.6 °F 43.1 °F 39.2 °F 81% 30.14 in 1.0 mi East 3.5 mph - N/A   Overcast
8:15 AM 44.6 °F 41.4 °F 39.2 °F 81% 30.13 in 1.2 mi East 5.8 mph - N/A   Overcast
8:35 AM 44.6 °F 43.1 °F 39.2 °F 81% 30.12 in 1.0 mi East 3.5 mph - N/A   Overcast
9:55 AM 46.4 °F 44.3 °F 42.8 °F 87% 30.10 in 1.2 mi NE 4.6 mph - N/A   Overcast
10:15 AM 46.4 °F 45.2 °F 42.8 °F 87% 30.09 in 1.0 mi East 3.5 mph - N/A   Overcast
10:35 AM 46.4 °F 43.5 °F 42.8 °F 87% 30.06 in 0.5 mi ENE 5.8 mph - 0.01 in   Overcast
10:55 AM 46.4 °F - 42.8 °F 87% 30.07 in 0.8 mi Calm Calm - 0.01 in   Overcast
11:35 AM 46.4 °F 45.2 °F 42.8 °F 87% 30.03 in 1.0 mi ENE 3.5 mph - N/A   Overcast
11:55 AM 48.2 °F - 42.8 °F 82% 30.02 in 1.5 mi East 3.5 mph - N/A   Overcast
12:15 PM 48.2 °F - 42.8 °F 82% 29.99 in 1.8 mi ENE 3.5 mph - N/A   Overcast
12:35 PM 48.2 °F - 42.8 °F 82% 29.96 in 1.0 mi East 5.8 mph - N/A   Overcast
12:55 PM 48.2 °F - 44.6 °F 87% 29.94 in 0.8 mi East 4.6 mph - N/A   Overcast
1:15 PM 48.2 °F - 44.6 °F 87% 29.94 in 0.8 mi East 5.8 mph - N/A   Overcast
1:35 PM 48.2 °F - 44.6 °F 87% 29.92 in 0.2 mi Calm Calm - N/A   Overcast
2:35 PM 50.0 °F - 46.4 °F 87% 29.88 in 0.2 mi ESE 4.6 mph - N/A   Overcast
3:15 PM 50.0 °F - 46.4 °F 87% 29.89 in 0.2 mi ESE 3.5 mph - N/A   Overcast
3:35 PM 51.8 °F - 46.4 °F 82% 29.88 in 0.2 mi ESE 6.9 mph - N/A   Overcast
4:15 PM 51.8 °F - 46.4 °F 82% 29.86 in 0.2 mi East 3.5 mph - N/A   Overcast
4:35 PM 51.8 °F - 46.4 °F 82% 29.85 in 0.2 mi Calm Calm - N/A   Overcast
4:55 PM 51.8 °F - 46.4 °F 82% 29.86 in 0.2 mi Calm Calm - N/A   Overcast
5:15 PM 51.8 °F - 46.4 °F 82% 29.85 in 0.2 mi Calm Calm - N/A   Overcast
5:55 PM 51.8 °F - 46.4 °F 82% 29.84 in 0.8 mi Calm Calm - 0.01 in   Overcast
6:15 PM 51.8 °F - 46.4 °F 82% 29.82 in 0.5 mi Calm Calm - N/A   Overcast
6:35 PM 51.8 °F - 46.4 °F 82% 29.82 in 0.2 mi Calm Calm - N/A   Overcast
6:55 PM 51.8 °F - 46.4 °F 82% 29.84 in 0.2 mi Calm Calm - 0.03 in   Overcast
7:15 PM 51.8 °F - 48.2 °F 88% 29.84 in 2.5 mi Calm Calm - 0.01 in   Overcast
7:35 PM 51.8 °F - 48.2 °F 88% 29.84 in 1.8 mi Calm Calm - 0.01 in   Mostly Cloudy
7:55 PM 51.8 °F - 46.4 °F 82% 29.85 in 0.8 mi NE 4.6 mph - 0.01 in   Overcast
8:15 PM 51.8 °F - 46.4 °F 82% 29.86 in 0.2 mi Calm Calm - N/A   Overcast
8:35 PM 50.0 °F - 44.6 °F 82% 29.86 in 0.2 mi Calm Calm - N/A   Overcast
9:15 PM 48.2 °F - 44.6 °F 87% 29.85 in 0.2 mi Calm Calm - N/A   Overcast
9:35 PM 50.0 °F - 46.4 °F 87% 29.87 in 0.8 mi SSE 3.5 mph - N/A   Overcast
9:55 PM 50.0 °F - 44.6 °F 82% 29.86 in 0.5 mi Calm Calm - N/A   Overcast
10:15 PM 48.2 °F - 44.6 °F 87% 29.87 in 0.2 mi Calm Calm - N/A   Overcast
10:55 PM 48.2 °F - 44.6 °F 87% 29.87 in 0.2 mi Calm Calm - N/A   Overcast
11:15 PM 46.4 °F - 42.8 °F 87% 29.87 in 0.2 mi Calm Calm - N/A   Overcast
11:35 PM 46.4 °F - 42.8 °F 87% 29.88 in 0.8 mi Calm Calm - N/A   Mostly Cloudy